{"data":{"norad_id":49495,"epoch":"2026-09-20T23:58:08.505984Z","epoch_age_seconds":64227,"freshness":"FRESH","line1":"1 49495U 21109A   26263.99870956 -.00000063  00000+0 -58999-5 0  9991","line2":"2 49495  98.4136 270.7496 0003892  68.1334 292.0270 14.42217154254123","mean_motion":14.42217154,"eccentricity":0.0003892,"inclination_deg":98.4136,"raan_deg":270.7496,"arg_perigee_deg":68.1334,"mean_anomaly_deg":292.027,"bstar":-5.8999e-6,"rev_number":25412,"period_min":99.846267672392,"perigee_km":748.40763873535,"apogee_km":753.95710093283,"semimajor_km":7129.3193698341,"source":"CELESTRAK","updated_at":"2026-09-21T09:00:08.124176Z"}}